Location: Marne
(34.0056°N, 117.9064°W)
Time: 15:37:06
(UTC+00:00)

ATLAS 5 CENTAUR R/B - Pass Details

Date: 18 January 2020
Orbit: 550 x 1108 km, 63.4° (Epoch: 12 February)

Event Time Altitude Azimuth Distance (km) Brightness Sun altitude
Rises 02:00:51 0° 264° (W) 2,749 6.8 -11.2°
Reaches altitude 10° 02:04:40 10° 301° (WNW) 1,924 4.7 -12.0°
Maximum altitude 02:05:57 11° 319° (NW) 1,882 4.4 -12.2°
Drops below altitude 10° 02:07:16 10° 336° (NNW) 1,990 4.3 -12.5°
Sets 02:11:29 0° 12° (NNE) 3,034 4.8 -13.3°
